This is the latest recevied weather packets stored in our database for station/object HB9FHL-13. If no packets are shown the sender has not sent any weather packets the latest 10 day(s).
| Time | Temp. | Humidity | Pressure | Rain* | Wind** | Luminosity | Snow |
|---|---|---|---|---|---|---|---|
| 1788232445 | 17.22° C | - | 1024.1 hPa | 0 mm | - | - | - |
| 1788232144 | 16.67° C | - | 1023.1 hPa | 0 mm | - | - | - |
| 1788231923 | 16.67° C | - | 1023.7 hPa | 0 mm | - | - | - |
| 1788231844 | 16.67° C | - | 1023.7 hPa | 0 mm | - | - | - |
| 1788231543 | 17.22° C | - | 1023 hPa | 0 mm | - | - | - |
| 1788231242 | 17.22° C | - | 1022.7 hPa | 0 mm | - | - | - |
| 1788230939 | 16.67° C | - | 1022.5 hPa | 0 mm | - | - | - |
| 1788230684 | 17.22° C | - | 1026.2 hPa | 0 mm | - | - | - |
| 1788230639 | 17.22° C | - | 1026.2 hPa | 0 mm | - | - | - |
| 1788230338 | 16.67° C | - | 1025.3 hPa | 0 mm | - | - | - |
| 1788230036 | 16.11° C | - | 1026.3 hPa | 0 mm | - | - | - |
| 1788229735 | 16.67° C | - | 1024.1 hPa | 0 mm | - | - | - |
| 1788229435 | 16.67° C | - | 1025.6 hPa | 0 mm | - | - | - |
| 1788229134 | 16.11° C | - | 1025.3 hPa | 0 mm | - | - | - |
| 1788228834 | 16.11° C | - | 1022.3 hPa | 0 mm | - | - | - |
| 1788228533 | 16.67° C | - | 1019.6 hPa | 0 mm | - | - | - |
| 1788228233 | 16.11° C | - | 1021.7 hPa | 0 mm | - | - | - |
| 1788227932 | 17.22° C | - | 1026.4 hPa | 0 mm | - | - | - |
| 1788227632 | 17.22° C | - | 1023.3 hPa | 0 mm | - | - | - |
| 1788227331 | 17.22° C | - | 1024.7 hPa | 0 mm | - | - | - |
| 1788227034 | 17.78° C | - | 1023.3 hPa | 0 mm | - | - | - |
| 1788226729 | 16.67° C | - | 1024.2 hPa | 0 mm | - | - | - |
| 1788226429 | 17.22° C | - | 1023.7 hPa | 0 mm | - | - | - |
| 1788226128 | 17.78° C | - | 1024.3 hPa | 0 mm | - | - | - |
| 1788225828 | 17.78° C | - | 1026.6 hPa | 0 mm | - | - | - |
* Rain since midnight (hover to see other rain measurements)
** Current wind speed in m/s (hover to see current wind gust speed)